sat.trackr.live / text

‹ back to catalog

STARLINK-30396

NORAD 57964 · 2023-151A

PAYLOAD ACTIVE UNKNOWN

§ Identity

Operator
Country
US
Launch date
2023-09-30
Launch site
AFETR
Launch vehicle
Mass (kg)
RCS (m²)

Purposes: comms

External: N2YO · Heavens-Above · Gunter

§ Orbital elements

Epoch: 2026-05-24T16:10:05.940768Z

Period
94.27 min
Inclination
43.0027°
Eccentricity
0.0001210
Mean motion
15.27583069 rev/d
Perigee alt
482.2 km
Apogee alt
483.9 km
Semi-major
6,861.2 km
B*
8.0588e-5
RAAN
267.1959°
Arg perigee
261.4749°
Mean anomaly
98.5965°
Rev number
14,738

§ Raw data

STARLINK-303961 57964U 23151A   26144.67367987  .00001956  00000+0  80588-4 0  99962 57964  43.0027 267.1959 0001210 261.4749  98.5965 15.27583069147386

JSON: /api/v1/satellites/57964 · /tle

For live sub-satellite position, see the globe view (requires WebGL).

§ Visibility from observer

Set your observer location to see the next 7 days of passes ≥ 10°. The values pass through the URL so the page stays shareable.

No JS? Fill the form by hand. The geolocation button needs JavaScript.